STARLINK-34500

Last updated on Sat Jul 19 2025 00:02:07 GMT+0000 (Coordinated Universal Time)

1 64613U 25137V 25199.58335648 -.01538530 00000+0 -16399-1 0 9991 2 64613 53.1598 355.2438 0000932 104.9319 294.6577 15.66254718 4856
UTC large
Height (km)
Speed (km/s)
/
Latitude / Longitude
Inclination (degrees)
Orbital Period (minutes)
Azimuth
Elevation
Range (km)
Doppler Factor

Next 0 passes for location: London (51.5072 / 0.1276)

Sorry there are no passes over London.